Location: Observatoire
(46.1952°N, 5.3391°E)
Time: 21:27:02
(UTC+01:00)

Vanguard 2 Rocket - All Passes

Search period start: 15 February 2026 00:00
Search period end: 25 February 2026 00:00
Orbit: 553 x 3286 km, 32.9° (Epoch: 15 February)

Date Brightness Start Highest point End Pass type
(mag) Time Alt. Az. Time Alt. Az. Time Alt. Az.
15 Feb - 11:18:36 10° S 11:29:34 18° SE 11:38:47 10° ESE daylight
15 Feb - 13:29:10 10° SW 13:44:09 35° SSE 13:54:24 10° ESE daylight
15 Feb - 15:44:47 10° WSW 15:58:19 41° S 16:06:32 10° ESE daylight
15 Feb - 18:02:00 10° WSW 18:10:57 28° SSW 18:16:47 10° SSE daylight
16 Feb - 10:16:50 10° SSE 10:23:24 13° SE 10:29:30 10° ESE daylight
16 Feb - 12:22:55 10° SSW 12:37:53 30° SSE 12:49:03 10° ESE daylight
16 Feb - 14:37:16 10° WSW 14:52:32 42° S 15:02:10 10° ESE daylight
16 Feb - 16:54:15 10° WSW 17:06:03 37° SSW 17:13:15 10° SE daylight
16 Feb - 19:12:37 10° WSW 19:17:36 16° SW 19:21:29 10° S visible
17 Feb - 11:17:37 10° SSW 11:31:30 25° SSE 11:42:53 10° ESE daylight
17 Feb - 13:30:04 10° SW 13:46:22 40° SSE 13:57:24 10° ESE daylight
17 Feb - 15:46:27 10° WSW 16:00:39 43° S 16:09:18 10° ESE daylight
17 Feb - 18:04:15 10° W 18:13:10 26° SSW 18:19:07 10° SSE daylight
18 Feb - 10:13:48 10° S 10:25:10 19° SE 10:35:23 10° ESE daylight
18 Feb - 12:23:25 10° SW 12:39:56 36° SSE 12:52:09 10° E daylight
18 Feb - 14:38:43 10° WSW 14:54:48 45° S 15:04:58 10° ESE daylight
18 Feb - 16:56:13 10° W 17:08:17 35° SSW 17:15:48 10° SE daylight
18 Feb - 19:16:06 10° WSW 19:19:36 12° SW 19:22:34 10° SSW visible
19 Feb - 09:13:17 10° SSE 09:19:02 12° SE 09:24:37 10° ESE daylight
19 Feb - 11:17:35 10° SSW 11:33:22 31° SSE 11:46:16 10° E daylight
19 Feb - 13:31:15 10° SW 13:48:31 45° S 14:00:14 10° ESE daylight
19 Feb - 15:48:13 10° WSW 16:02:54 43° SSW 16:11:57 10° SE daylight
19 Feb - 18:06:41 10° W 18:15:14 22° SW 18:21:11 10° S daylight
20 Feb - 10:12:51 10° S 10:26:51 25° SE 10:39:26 10° E daylight
20 Feb - 12:24:19 10° SW 12:41:55 42° SSE 12:55:02 10° E daylight
20 Feb - 14:40:18 10° WSW 14:57:00 47° S 15:07:39 10° ESE daylight
20 Feb - 16:58:16 10° W 17:10:24 32° SSW 17:18:10 10° SSE daylight
21 Feb - 09:09:49 10° S 09:20:34 18° SE 09:30:58 10° ESE daylight
21 Feb - 11:18:08 10° SSW 11:35:10 37° SSE 11:49:16 10° E daylight
21 Feb - 13:32:41 10° WSW 13:50:36 49° S 14:02:56 10° ESE daylight
21 Feb - 15:50:03 10° W 16:05:02 41° SSW 16:14:28 10° SE daylight
21 Feb - 18:09:22 10° W 18:17:07 19° SW 18:22:50 10° S daylight
22 Feb - 08:12:42 10° SE 08:14:36 10° SE 08:16:32 10° SE daylight
22 Feb - 10:12:52 10° SSW 10:28:29 31° SSE 10:42:44 10° E daylight
22 Feb - 12:25:33 10° SW 12:43:52 47° SSE 12:57:44 10° ESE daylight
22 Feb - 14:42:01 10° WSW 14:59:06 48° S 15:10:14 10° ESE daylight
22 Feb - 17:00:26 10° W 17:12:21 29° SW 17:20:18 10° SSE daylight
23 Feb - 09:08:51 10° S 09:22:01 23° SE 09:35:05 10° E daylight
23 Feb - 11:19:07 10° SW 11:36:57 43° SSE 11:52:00 10° E daylight
23 Feb - 13:34:17 10° WSW 13:52:38 51° S 14:05:31 10° ESE daylight
23 Feb - 15:51:59 10° W 16:07:02 39° SSW 16:16:48 10° SE daylight
23 Feb - 18:12:34 10° WSW 18:18:51 15° SW 18:23:51 10° SSW daylight
24 Feb - 08:06:54 10° SSE 08:15:57 16° SE 08:25:21 10° ESE daylight
24 Feb - 10:13:31 10° SSW 10:30:05 36° SSE 10:45:37 10° E daylight
24 Feb - 12:27:02 10° WSW 12:45:47 50° S 13:00:19 10° ESE daylight
24 Feb - 14:43:50 10° W 15:01:06 46° SSW 15:12:40 10° SE daylight
24 Feb - 17:02:47 10° W 17:14:08 25° SW 17:22:06 10° S daylight
